Time,TemperatureF,DewpointF,PressureIn,WindDirection,WindDirectionDegrees,WindSpeedMPH,WindSpeedGustMPH,Humidity,HourlyPrecipIn,Conditions,Clouds,dailyrainin,SoftwareType,DateUTC
2013-05-27 00:01:00,53.7,45.3,30.08,East,91,0.0,3.0,73,0.00,,,0.00,WUHU216DAVISVP2,2013-05-27 05:01:00,
2013-05-27 00:06:00,53.7,45.3,30.08,NE,56,0.0,3.0,73,0.00,,,0.00,WUHU216DAVISVP2,2013-05-27 05:06:00,
2013-05-27 00:11:00,53.7,45.0,30.07,East,91,0.0,6.0,72,0.00,,,0.00,WUHU216DAVISVP2,2013-05-27 05:11:00,
2013-05-27 00:16:00,53.8,45.1,30.07,NE,56,0.0,6.0,72,0.00,,,0.00,WUHU216DAVISVP2,2013-05-27 05:16:00,
2013-05-27 00:21:00,53.8,45.1,30.08,ESE,103,1.0,6.0,72,0.00,,,0.00,WUHU216DAVISVP2,2013-05-27 05:21:00,
2013-05-27 00:26:00,53.9,45.2,30.08,NE,34,0.0,5.0,72,0.00,,,0.00,WUHU216DAVISVP2,2013-05-27 05:26:00,
2013-05-27 00:31:00,53.9,44.8,30.08,SSW,196,0.0,5.0,71,0.00,,,0.00,WUHU216DAVISVP2,2013-05-27 05:31:00,
2013-05-27 00:36:00,54.0,45.3,30.09,South,180,2.0,5.0,72,0.00,,,0.00,WUHU216DAVISVP2,2013-05-27 05:36:00,
2013-05-27 00:41:00,54.1,44.9,30.10,South,174,1.0,4.0,71,0.00,,,0.00,WUHU216DAVISVP2,2013-05-27 05:41:00,
2013-05-27 00:46:00,54.2,45.5,30.10,SSE,149,0.0,4.0,72,0.00,,,0.00,WUHU216DAVISVP2,2013-05-27 05:46:00,
2013-05-27 00:51:00,54.2,45.5,30.10,South,176,0.0,5.0,72,0.00,,,0.00,WUHU216DAVISVP2,2013-05-27 05:51:00,
2013-05-27 00:56:00,54.2,45.5,30.10,South,180,0.0,5.0,72,0.00,,,0.00,WUHU216DAVISVP2,2013-05-27 05:56:00,
2013-05-27 01:01:00,54.3,45.9,30.11,SSE,158,0.0,5.0,73,0.00,,,0.00,WUHU216DAVISVP2,2013-05-27 06:01:00,
2013-05-27 01:06:00,54.3,45.9,30.10,SSE,157,0.0,5.0,73,0.00,,,0.00,WUHU216DAVISVP2,2013-05-27 06:06:00,
2013-05-27 01:11:00,54.2,45.8,30.11,SE,144,0.0,6.0,73,0.00,,,0.00,WUHU216DAVISVP2,2013-05-27 06:11:00,
2013-05-27 01:16:00,54.2,45.7,30.10,ESE,109,0.0,6.0,73,0.00,,,0.00,WUHU216DAVISVP2,2013-05-27 06:16:00,
2013-05-27 01:21:00,54.2,45.7,30.09,ESE,110,0.0,6.0,73,0.00,,,0.00,WUHU216DAVISVP2,2013-05-27 06:21:00,
2013-05-27 01:26:00,54.1,46.0,30.09,ESE,110,0.0,6.0,74,0.00,,,0.00,WUHU216DAVISVP2,2013-05-27 06:26:00,
2013-05-27 01:31:00,54.1,46.1,30.09,ESE,109,0.0,2.0,74,0.00,,,0.00,WUHU216DAVISVP2,2013-05-27 06:31:00,
2013-05-27 01:36:00,54.0,46.0,30.08,NE,46,0.0,1.0,74,0.00,,,0.00,WUHU216DAVISVP2,2013-05-27 06:36:00,
2013-05-27 01:41:00,53.9,45.9,30.08,ENE,57,0.0,4.0,74,0.00,,,0.00,WUHU216DAVISVP2,2013-05-27 06:41:00,
2013-05-27 01:46:00,53.8,45.3,30.07,ENE,57,0.0,4.0,73,0.00,,,0.00,WUHU216DAVISVP2,2013-05-27 06:46:00,
2013-05-27 01:51:00,53.7,45.0,30.06,North,11,0.0,5.0,72,0.00,,,0.00,WUHU216DAVISVP2,2013-05-27 06:51:00,
2013-05-27 01:56:00,53.7,44.9,30.06,NE,35,3.0,5.0,72,0.00,,,0.00,WUHU216DAVISVP2,2013-05-27 06:56:00,
2013-05-27 02:01:00,53.6,44.9,30.06,ENE,57,0.0,4.0,72,0.00,,,0.00,WUHU216DAVISVP2,2013-05-27 07:01:00,
2013-05-27 02:06:00,53.6,45.3,30.06,East,101,0.0,4.0,73,0.00,,,0.00,WUHU216DAVISVP2,2013-05-27 07:06:00,
2013-05-27 02:11:00,53.5,45.1,30.06,East,101,0.0,4.0,73,0.00,,,0.00,WUHU216DAVISVP2,2013-05-27 07:11:00,
2013-05-27 02:16:00,53.5,44.7,30.06,East,101,0.0,2.0,72,0.00,,,0.00,WUHU216DAVISVP2,2013-05-27 07:16:00,
2013-05-27 02:21:00,53.5,45.1,30.06,East,101,0.0,2.0,73,0.00,,,0.00,WUHU216DAVISVP2,2013-05-27 07:21:00,
2013-05-27 02:26:00,53.4,45.1,30.06,SSE,163,0.0,1.0,73,0.00,,,0.00,WUHU216DAVISVP2,2013-05-27 07:26:00,
2013-05-27 02:31:00,53.3,44.6,30.07,SSE,163,0.0,1.0,72,0.00,,,0.00,WUHU216DAVISVP2,2013-05-27 07:31:00,
2013-05-27 02:36:00,53.2,44.9,30.07,SSE,162,0.0,1.0,73,0.00,,,0.00,WUHU216DAVISVP2,2013-05-27 07:36:00,
2013-05-27 02:41:00,53.2,44.9,30.06,SSE,164,0.0,4.0,73,0.00,,,0.00,WUHU216DAVISVP2,2013-05-27 07:41:00,
2013-05-27 02:46:00,53.1,44.7,30.07,SSE,164,0.0,4.0,73,0.00,,,0.00,WUHU216DAVISVP2,2013-05-27 07:46:00,
2013-05-27 02:51:00,53.0,44.2,30.07,SSE,164,0.0,4.0,72,0.00,,,0.00,WUHU216DAVISVP2,2013-05-27 07:51:00,
2013-05-27 02:56:00,52.8,44.1,30.07,ESE,107,0.0,4.0,72,0.00,,,0.00,WUHU216DAVISVP2,2013-05-27 07:56:00,
2013-05-27 03:01:00,52.7,43.9,30.07,South,188,1.0,1.0,72,0.00,,,0.00,WUHU216DAVISVP2,2013-05-27 08:01:00,
2013-05-27 03:06:00,52.5,43.5,30.07,SSW,193,0.0,3.0,71,0.00,,,0.00,WUHU216DAVISVP2,2013-05-27 08:06:00,
2013-05-27 03:11:00,52.4,43.7,30.07,SSW,193,0.0,3.0,72,0.00,,,0.00,WUHU216DAVISVP2,2013-05-27 08:11:00,
2013-05-27 03:16:00,52.3,43.6,30.07,SSW,193,0.0,3.0,72,0.00,,,0.00,WUHU216DAVISVP2,2013-05-27 08:16:00,
2013-05-27 03:21:00,52.1,43.4,30.07,ENE,63,0.0,1.0,72,0.00,,,0.00,WUHU216DAVISVP2,2013-05-27 08:21:00,
2013-05-27 03:26:00,51.9,43.3,30.07,SE,140,0.0,1.0,72,0.00,,,0.00,WUHU216DAVISVP2,2013-05-27 08:26:00,
2013-05-27 03:31:00,51.7,43.3,30.07,SE,140,0.0,1.0,73,0.00,,,0.00,WUHU216DAVISVP2,2013-05-27 08:31:00,
2013-05-27 03:36:00,51.4,43.0,30.07,SE,140,0.0,1.0,73,0.00,,,0.00,WUHU216DAVISVP2,2013-05-27 08:36:00,
2013-05-27 03:41:00,51.2,42.9,30.07,SE,140,0.0,0.0,73,0.00,,,0.00,WUHU216DAVISVP2,2013-05-27 08:41:00,
2013-05-27 03:46:00,51.0,42.7,30.06,ENE,65,0.0,2.0,73,0.00,,,0.00,WUHU216DAVISVP2,2013-05-27 08:46:00,
2013-05-27 03:51:00,50.9,42.6,30.06,ENE,65,0.0,2.0,73,0.00,,,0.00,WUHU216DAVISVP2,2013-05-27 08:51:00,
2013-05-27 03:56:00,50.8,43.2,30.06,ENE,65,0.0,2.0,75,0.00,,,0.00,WUHU216DAVISVP2,2013-05-27 08:56:00,
2013-05-27 04:01:00,50.6,43.0,30.06,ENE,65,0.0,2.0,75,0.00,,,0.00,WUHU216DAVISVP2,2013-05-27 09:01:00,
2013-05-27 04:06:00,50.5,42.9,30.06,NNE,29,0.0,3.0,75,0.00,,,0.00,WUHU216DAVISVP2,2013-05-27 09:06:00,
2013-05-27 04:10:00,50.4,42.5,30.06,East,101,1.0,3.0,74,0.00,,,0.00,WUHU216DAVISVP2,2013-05-27 09:10:00,
2013-05-27 04:15:00,50.3,42.4,30.05,NE,53,0.0,3.0,74,0.00,,,0.00,WUHU216DAVISVP2,2013-05-27 09:15:00,
2013-05-27 04:20:00,50.3,42.4,30.05,NE,53,0.0,3.0,74,0.00,,,0.00,WUHU216DAVISVP2,2013-05-27 09:20:00,
2013-05-27 04:25:00,50.2,42.3,30.06,NE,53,0.0,2.0,74,0.00,,,0.00,WUHU216DAVISVP2,2013-05-27 09:25:00,
2013-05-27 04:30:00,50.2,42.3,30.06,NE,53,0.0,2.0,74,0.00,,,0.00,WUHU216DAVISVP2,2013-05-27 09:30:00,
2013-05-27 04:35:00,50.2,43.0,30.06,NE,53,0.0,2.0,76,0.00,,,0.00,WUHU216DAVISVP2,2013-05-27 09:35:00,
2013-05-27 04:40:00,50.1,42.9,30.05,NE,40,2.0,4.0,76,0.00,,,0.00,WUHU216DAVISVP2,2013-05-27 09:40:00,
2013-05-27 04:45:00,50.0,42.7,30.05,ENE,63,0.0,4.0,76,0.00,,,0.00,WUHU216DAVISVP2,2013-05-27 09:45:00,
2013-05-27 04:50:00,49.9,42.7,30.05,ENE,63,0.0,4.0,76,0.00,,,0.00,WUHU216DAVISVP2,2013-05-27 09:50:00,
2013-05-27 04:55:00,49.7,42.5,30.05,ENE,63,0.0,4.0,76,0.00,,,0.00,WUHU216DAVISVP2,2013-05-27 09:55:00,
2013-05-27 05:00:00,49.6,42.4,30.05,ENE,63,0.0,3.0,76,0.00,,,0.00,WUHU216DAVISVP2,2013-05-27 10:00:00,
2013-05-27 05:05:00,49.5,42.0,30.06,ENE,66,1.0,5.0,75,0.00,,,0.00,WUHU216DAVISVP2,2013-05-27 10:05:00,
2013-05-27 05:10:00,49.5,42.0,30.05,ENE,66,1.0,5.0,75,0.00,,,0.00,WUHU216DAVISVP2,2013-05-27 10:10:00,
2013-05-27 05:15:00,49.4,41.9,30.06,NNE,21,0.0,5.0,75,0.00,,,0.00,WUHU216DAVISVP2,2013-05-27 10:15:00,
2013-05-27 05:20:00,49.3,41.8,30.06,NNE,21,0.0,5.0,75,0.00,,,0.00,WUHU216DAVISVP2,2013-05-27 10:20:00,
2013-05-27 05:25:00,49.2,42.0,30.07,NNE,21,0.0,3.0,76,0.00,,,0.00,WUHU216DAVISVP2,2013-05-27 10:25:00,
2013-05-27 05:30:00,49.2,42.0,30.07,NNE,12,0.0,3.0,76,0.00,,,0.00,WUHU216DAVISVP2,2013-05-27 10:30:00,
2013-05-27 05:35:00,49.2,42.0,30.06,East,79,0.0,1.0,76,0.00,,,0.00,WUHU216DAVISVP2,2013-05-27 10:35:00,
2013-05-27 05:40:00,49.2,41.7,30.06,East,79,0.0,1.0,75,0.00,,,0.00,WUHU216DAVISVP2,2013-05-27 10:40:00,
2013-05-27 05:45:00,49.2,41.7,30.07,ENE,69,0.0,4.0,75,0.00,,,0.00,WUHU216DAVISVP2,2013-05-27 10:45:00,
2013-05-27 05:50:00,49.2,41.6,30.06,ENE,69,0.0,4.0,75,0.00,,,0.00,WUHU216DAVISVP2,2013-05-27 10:50:00,
2013-05-27 05:55:00,49.2,41.6,30.06,East,80,0.0,4.0,75,0.00,,,0.00,WUHU216DAVISVP2,2013-05-27 10:55:00,
2013-05-27 06:00:00,49.2,41.7,30.06,ENE,77,0.0,3.0,75,0.00,,,0.00,WUHU216DAVISVP2,2013-05-27 11:00:00,
2013-05-27 06:05:00,49.2,41.7,30.06,ENE,77,0.0,2.0,75,0.00,,,0.00,WUHU216DAVISVP2,2013-05-27 11:05:00,
2013-05-27 06:10:00,49.1,41.6,30.06,South,175,0.0,3.0,75,0.00,,,0.00,WUHU216DAVISVP2,2013-05-27 11:10:00,
2013-05-27 06:15:00,49.1,41.6,30.06,ENE,64,0.0,3.0,75,0.00,,,0.00,WUHU216DAVISVP2,2013-05-27 11:15:00,
2013-05-27 06:20:00,49.1,41.9,30.06,ENE,65,0.0,5.0,76,0.00,,,0.00,WUHU216DAVISVP2,2013-05-27 11:20:00,
2013-05-27 06:25:00,49.1,41.9,30.06,NE,47,0.0,5.0,76,0.00,,,0.00,WUHU216DAVISVP2,2013-05-27 11:25:00,
2013-05-27 06:30:00,49.1,41.6,30.05,South,170,0.0,5.0,75,0.00,,,0.00,WUHU216DAVISVP2,2013-05-27 11:30:00,
2013-05-27 06:35:00,49.1,41.9,30.05,SE,138,0.0,5.0,76,0.00,,,0.00,WUHU216DAVISVP2,2013-05-27 11:35:00,
2013-05-27 06:40:00,49.2,42.0,30.05,SE,138,0.0,5.0,76,0.00,,,0.00,WUHU216DAVISVP2,2013-05-27 11:40:00,
2013-05-27 06:45:00,49.2,42.0,30.04,ENE,73,1.0,5.0,76,0.00,,,0.00,WUHU216DAVISVP2,2013-05-27 11:45:00,
2013-05-27 06:50:00,49.3,42.1,30.04,South,171,0.0,6.0,76,0.00,,,0.00,WUHU216DAVISVP2,2013-05-27 11:50:00,
2013-05-27 06:55:00,49.4,42.2,30.04,NE,35,0.0,6.0,76,0.00,,,0.00,WUHU216DAVISVP2,2013-05-27 11:55:00,
2013-05-27 07:00:00,49.4,42.1,30.04,NE,52,0.0,6.0,76,0.00,,,0.00,WUHU216DAVISVP2,2013-05-27 12:00:00,
2013-05-27 07:05:00,49.5,42.6,30.04,SSE,158,0.0,6.0,77,0.00,,,0.00,WUHU216DAVISVP2,2013-05-27 12:05:00,
2013-05-27 07:10:00,49.5,42.3,30.04,SW,234,0.0,4.0,76,0.00,,,0.00,WUHU216DAVISVP2,2013-05-27 12:10:00,
2013-05-27 07:15:00,49.6,42.7,30.04,SW,234,0.0,4.0,77,0.00,,,0.00,WUHU216DAVISVP2,2013-05-27 12:15:00,
2013-05-27 07:20:00,49.6,43.1,30.04,SW,234,0.0,3.0,78,0.00,,,0.00,WUHU216DAVISVP2,2013-05-27 12:20:00,
2013-05-27 07:25:00,49.7,42.8,30.03,NE,49,0.0,4.0,77,0.00,,,0.00,WUHU216DAVISVP2,2013-05-27 12:25:00,
2013-05-27 07:30:00,49.8,43.3,30.03,NE,49,0.0,4.0,78,0.00,,,0.00,WUHU216DAVISVP2,2013-05-27 12:30:00,
2013-05-27 07:35:00,50.0,43.5,30.03,NE,47,0.0,4.0,78,0.00,,,0.00,WUHU216DAVISVP2,2013-05-27 12:35:00,
2013-05-27 07:40:00,50.2,43.7,30.03,NE,47,0.0,4.0,78,0.00,,,0.00,WUHU216DAVISVP2,2013-05-27 12:40:00,
2013-05-27 07:45:00,50.4,43.9,30.03,NE,47,1.0,4.0,78,0.00,,,0.00,WUHU216DAVISVP2,2013-05-27 12:45:00,
2013-05-27 07:50:00,50.5,43.9,30.03,NE,47,0.0,3.0,78,0.00,,,0.00,WUHU216DAVISVP2,2013-05-27 12:50:00,
2013-05-27 07:55:00,50.7,44.1,30.03,NE,47,0.0,3.0,78,0.00,,,0.00,WUHU216DAVISVP2,2013-05-27 12:55:00,
2013-05-27 08:00:00,50.9,44.3,30.03,SW,219,1.0,4.0,78,0.00,,,0.00,WUHU216DAVISVP2,2013-05-27 13:00:00,
2013-05-27 08:05:00,51.2,44.6,30.03,NE,45,0.0,4.0,78,0.00,,,0.00,WUHU216DAVISVP2,2013-05-27 13:05:00,
2013-05-27 08:10:00,51.3,44.4,30.03,SSE,153,0.0,4.0,77,0.00,,,0.00,WUHU216DAVISVP2,2013-05-27 13:10:00,
2013-05-27 08:15:00,51.5,44.6,30.03,SE,142,0.0,4.0,77,0.00,,,0.00,WUHU216DAVISVP2,2013-05-27 13:15:00,
2013-05-27 08:20:00,51.6,45.0,30.02,ESE,103,0.0,4.0,78,0.00,,,0.00,WUHU216DAVISVP2,2013-05-27 13:20:00,
2013-05-27 08:25:00,51.8,45.2,30.03,West,263,0.0,4.0,78,0.00,,,0.00,WUHU216DAVISVP2,2013-05-27 13:25:00,
2013-05-27 08:30:00,51.9,45.3,30.03,SSW,192,0.0,4.0,78,0.00,,,0.00,WUHU216DAVISVP2,2013-05-27 13:30:00,
2013-05-27 08:35:00,52.0,45.7,30.03,SSE,157,0.0,3.0,79,0.00,,,0.00,WUHU216DAVISVP2,2013-05-27 13:35:00,
2013-05-27 08:40:00,52.1,45.5,30.03,SSW,194,0.0,3.0,78,0.00,,,0.00,WUHU216DAVISVP2,2013-05-27 13:40:00,
2013-05-27 08:45:00,52.2,45.9,30.03,SSW,213,1.0,3.0,79,0.00,,,0.00,WUHU216DAVISVP2,2013-05-27 13:45:00,
2013-05-27 08:50:00,52.3,46.0,30.03,South,171,0.0,3.0,79,0.00,,,0.00,WUHU216DAVISVP2,2013-05-27 13:50:00,
2013-05-27 08:55:00,52.4,46.4,30.03,South,183,2.0,4.0,80,0.00,,,0.00,WUHU216DAVISVP2,2013-05-27 13:55:00,
2013-05-27 09:00:00,52.5,46.5,30.02,SE,142,0.0,5.0,80,0.00,,,0.00,WUHU216DAVISVP2,2013-05-27 14:00:00,
2013-05-27 09:05:00,52.7,47.1,30.01,SE,142,1.0,5.0,81,0.00,,,0.00,WUHU216DAVISVP2,2013-05-27 14:05:00,
2013-05-27 09:10:00,52.9,46.6,30.01,SSW,204,6.0,7.0,79,0.00,,,0.00,WUHU216DAVISVP2,2013-05-27 14:10:00,
2013-05-27 09:15:00,53.2,46.9,30.01,SSW,206,4.0,7.0,79,0.00,,,0.00,WUHU216DAVISVP2,2013-05-27 14:15:00,
2013-05-27 09:20:00,53.3,46.7,30.01,NW,306,0.0,7.0,78,0.00,,,0.00,WUHU216DAVISVP2,2013-05-27 14:20:00,
2013-05-27 09:25:00,53.6,47.0,30.00,SSW,212,0.0,7.0,78,0.00,,,0.00,WUHU216DAVISVP2,2013-05-27 14:25:00,
2013-05-27 09:30:00,53.7,47.1,30.00,ESE,107,1.0,7.0,78,0.00,,,0.00,WUHU216DAVISVP2,2013-05-27 14:30:00,
2013-05-27 09:35:00,53.9,46.9,30.00,SE,139,1.0,7.0,77,0.00,,,0.00,WUHU216DAVISVP2,2013-05-27 14:35:00,
2013-05-27 09:40:00,53.9,46.5,30.00,SE,142,0.0,7.0,76,0.00,,,0.00,WUHU216DAVISVP2,2013-05-27 14:40:00,
2013-05-27 09:45:00,54.0,46.7,30.00,NE,56,0.0,7.0,76,0.00,,,0.00,WUHU216DAVISVP2,2013-05-27 14:45:00,
2013-05-27 09:50:00,53.9,46.2,30.01,SSE,157,0.0,7.0,75,0.00,,,0.00,WUHU216DAVISVP2,2013-05-27 14:50:00,
2013-05-27 09:55:00,53.9,46.6,30.01,SE,138,0.0,7.0,76,0.00,,,0.00,WUHU216DAVISVP2,2013-05-27 14:55:00,
2013-05-27 10:00:00,53.9,46.9,30.01,SSW,199,0.0,7.0,77,0.00,,,0.00,WUHU216DAVISVP2,2013-05-27 15:00:00,
2013-05-27 10:05:00,53.9,46.6,30.01,ESE,114,0.0,7.0,76,0.00,,,0.00,WUHU216DAVISVP2,2013-05-27 15:05:00,
2013-05-27 10:10:00,53.9,46.9,30.00,SE,146,3.0,7.0,77,0.00,,,0.00,WUHU216DAVISVP2,2013-05-27 15:10:00,
2013-05-27 10:15:00,53.9,46.9,30.00,SSW,198,0.0,9.0,77,0.00,,,0.00,WUHU216DAVISVP2,2013-05-27 15:15:00,
2013-05-27 10:20:00,54.0,47.0,30.00,SSE,162,2.0,9.0,77,0.00,,,0.00,WUHU216DAVISVP2,2013-05-27 15:20:00,
2013-05-27 10:25:00,54.0,47.0,30.00,South,180,1.0,9.0,77,0.00,,,0.00,WUHU216DAVISVP2,2013-05-27 15:25:00,
2013-05-27 10:30:00,54.0,47.0,30.00,SSW,200,5.0,9.0,77,0.00,,,0.00,WUHU216DAVISVP2,2013-05-27 15:30:00,
2013-05-27 10:35:00,54.0,47.0,30.00,South,175,0.0,9.0,77,0.00,,,0.00,WUHU216DAVISVP2,2013-05-27 15:35:00,
2013-05-27 10:40:00,54.0,47.4,29.99,SSE,167,3.0,9.0,78,0.00,,,0.00,WUHU216DAVISVP2,2013-05-27 15:40:00,
2013-05-27 10:44:00,53.9,47.3,29.99,SE,144,0.0,8.0,78,0.00,,,0.00,WUHU216DAVISVP2,2013-05-27 15:44:00,
2013-05-27 10:49:00,54.0,47.4,29.99,NE,51,0.0,8.0,78,0.00,,,0.00,WUHU216DAVISVP2,2013-05-27 15:49:00,
2013-05-27 10:54:00,54.1,47.1,29.99,South,171,0.0,8.0,77,0.00,,,0.00,WUHU216DAVISVP2,2013-05-27 15:54:00,
2013-05-27 10:59:00,54.2,47.1,29.99,SE,126,0.0,8.0,77,0.00,,,0.00,WUHU216DAVISVP2,2013-05-27 15:59:00,
2013-05-27 11:04:00,54.4,47.3,29.99,SSW,196,0.0,8.0,77,0.00,,,0.00,WUHU216DAVISVP2,2013-05-27 16:04:00,
2013-05-27 11:09:00,54.6,47.6,29.99,SSW,213,1.0,7.0,77,0.00,,,0.00,WUHU216DAVISVP2,2013-05-27 16:09:00,
2013-05-27 11:14:00,54.7,47.7,29.99,SW,216,2.0,7.0,77,0.00,,,0.00,WUHU216DAVISVP2,2013-05-27 16:14:00,
2013-05-27 11:19:00,54.8,47.5,29.99,SSE,153,3.0,7.0,76,0.00,,,0.00,WUHU216DAVISVP2,2013-05-27 16:19:00,
2013-05-27 11:24:00,54.9,47.2,30.00,South,191,0.0,7.0,75,0.00,,,0.00,WUHU216DAVISVP2,2013-05-27 16:24:00,
2013-05-27 11:29:00,54.9,47.6,30.00,ENE,65,3.0,6.0,76,0.00,,,0.00,WUHU216DAVISVP2,2013-05-27 16:29:00,
2013-05-27 11:34:00,55.0,47.7,30.00,SSW,213,0.0,6.0,76,0.00,,,0.00,WUHU216DAVISVP2,2013-05-27 16:34:00,
2013-05-27 11:39:00,55.1,47.4,30.00,SSW,210,2.0,6.0,75,0.00,,,0.00,WUHU216DAVISVP2,2013-05-27 16:39:00,
2013-05-27 11:44:00,55.1,47.4,30.00,ESE,109,0.0,6.0,75,0.00,,,0.00,WUHU216DAVISVP2,2013-05-27 16:44:00,
2013-05-27 11:49:00,55.1,47.8,29.99,SSW,200,0.0,6.0,76,0.00,,,0.00,WUHU216DAVISVP2,2013-05-27 16:49:00,
2013-05-27 11:54:00,55.2,47.8,29.99,ESE,112,0.0,6.0,76,0.00,,,0.00,WUHU216DAVISVP2,2013-05-27 16:54:00,
2013-05-27 11:59:00,55.2,47.5,29.98,East,101,0.0,4.0,75,0.00,,,0.00,WUHU216DAVISVP2,2013-05-27 16:59:00,
2013-05-27 12:04:00,55.3,47.2,29.98,SSW,198,2.0,4.0,74,0.00,,,0.00,WUHU216DAVISVP2,2013-05-27 17:04:00,
2013-05-27 12:09:00,55.5,47.4,29.98,East,84,0.0,3.0,74,0.00,,,0.00,WUHU216DAVISVP2,2013-05-27 17:09:00,
2013-05-27 12:14:00,55.7,47.6,29.97,ESE,107,1.0,3.0,74,0.00,,,0.00,WUHU216DAVISVP2,2013-05-27 17:14:00,
2013-05-27 12:19:00,55.9,47.5,29.97,SSE,149,0.0,3.0,73,0.00,,,0.00,WUHU216DAVISVP2,2013-05-27 17:19:00,
2013-05-27 12:24:00,56.1,47.7,29.97,East,82,0.0,7.0,73,0.00,,,0.00,WUHU216DAVISVP2,2013-05-27 17:24:00,
2013-05-27 12:29:00,56.2,47.3,29.97,East,82,0.0,7.0,72,0.00,,,0.00,WUHU216DAVISVP2,2013-05-27 17:29:00,
2013-05-27 12:34:00,56.3,47.8,29.96,East,82,0.0,7.0,73,0.00,,,0.00,WUHU216DAVISVP2,2013-05-27 17:34:00,
2013-05-27 12:39:00,56.5,47.7,29.96,SE,140,0.0,6.0,72,0.00,,,0.00,WUHU216DAVISVP2,2013-05-27 17:39:00,
2013-05-27 12:44:00,56.6,48.2,29.96,ESE,105,0.0,6.0,73,0.00,,,0.00,WUHU216DAVISVP2,2013-05-27 17:44:00,
2013-05-27 12:49:00,56.9,48.4,29.95,NE,45,0.0,6.0,73,0.00,,,0.00,WUHU216DAVISVP2,2013-05-27 17:49:00,
2013-05-27 12:54:00,57.1,48.3,29.95,SE,143,0.0,6.0,72,0.00,,,0.00,WUHU216DAVISVP2,2013-05-27 17:54:00,
2013-05-27 12:59:00,57.2,48.4,29.96,SSE,155,1.0,4.0,72,0.00,,,0.00,WUHU216DAVISVP2,2013-05-27 17:59:00,
2013-05-27 13:04:00,57.4,48.6,29.96,East,96,0.0,4.0,72,0.00,,,0.00,WUHU216DAVISVP2,2013-05-27 18:04:00,
2013-05-27 13:09:00,57.5,48.7,29.96,ESE,111,2.0,8.0,72,0.00,,,0.00,WUHU216DAVISVP2,2013-05-27 18:09:00,
2013-05-27 13:14:00,57.7,48.5,29.95,NE,50,0.0,8.0,71,0.00,,,0.00,WUHU216DAVISVP2,2013-05-27 18:14:00,
2013-05-27 13:19:00,57.8,48.6,29.95,NE,54,2.0,8.0,71,0.00,,,0.00,WUHU216DAVISVP2,2013-05-27 18:19:00,
2013-05-27 13:24:00,57.9,48.7,29.95,East,94,3.0,8.0,71,0.00,,,0.00,WUHU216DAVISVP2,2013-05-27 18:24:00,
2013-05-27 13:29:00,58.1,48.9,29.95,SSW,199,2.0,8.0,71,0.00,,,0.00,WUHU216DAVISVP2,2013-05-27 18:29:00,
2013-05-27 13:34:00,58.3,48.7,29.95,NE,56,0.0,5.0,70,0.00,,,0.00,WUHU216DAVISVP2,2013-05-27 18:34:00,
2013-05-27 13:39:00,58.4,48.8,29.95,ESE,113,0.0,5.0,70,0.00,,,0.00,WUHU216DAVISVP2,2013-05-27 18:39:00,
2013-05-27 13:44:00,58.5,49.3,29.95,East,80,0.0,7.0,71,0.00,,,0.00,WUHU216DAVISVP2,2013-05-27 18:44:00,
2013-05-27 13:49:00,58.6,49.0,29.95,East,84,0.0,7.0,70,0.00,,,0.00,WUHU216DAVISVP2,2013-05-27 18:49:00,
2013-05-27 13:54:00,58.7,49.1,29.95,SE,140,1.0,7.0,70,0.00,,,0.00,WUHU216DAVISVP2,2013-05-27 18:54:00,
2013-05-27 13:59:00,58.7,49.1,29.95,East,86,3.0,7.0,70,0.00,,,0.00,WUHU216DAVISVP2,2013-05-27 18:59:00,
2013-05-27 14:04:00,58.7,49.1,29.95,East,87,0.0,8.0,70,0.00,,,0.00,WUHU216DAVISVP2,2013-05-27 19:04:00,
2013-05-27 14:09:00,58.8,49.2,29.95,ENE,60,0.0,8.0,70,0.00,,,0.00,WUHU216DAVISVP2,2013-05-27 19:09:00,
2013-05-27 14:14:00,58.8,49.4,29.95,SE,140,0.0,8.0,71,0.00,,,0.00,WUHU216DAVISVP2,2013-05-27 19:14:00,
2013-05-27 14:19:00,58.9,49.9,29.95,South,186,2.0,8.0,72,0.00,,,0.00,WUHU216DAVISVP2,2013-05-27 19:19:00,
2013-05-27 14:24:00,59.1,49.8,29.95,SE,143,4.0,7.0,71,0.00,,,0.00,WUHU216DAVISVP2,2013-05-27 19:24:00,
2013-05-27 14:29:00,59.3,49.6,29.95,SSE,154,0.0,7.0,70,0.00,,,0.00,WUHU216DAVISVP2,2013-05-27 19:29:00,
2013-05-27 14:34:00,59.4,49.7,29.94,South,171,0.0,7.0,70,0.00,,,0.00,WUHU216DAVISVP2,2013-05-27 19:34:00,
2013-05-27 14:39:00,59.5,50.6,29.94,ESE,114,0.0,7.0,72,0.00,,,0.00,WUHU216DAVISVP2,2013-05-27 19:39:00,
2013-05-27 14:44:00,59.7,50.4,29.94,South,170,0.0,7.0,71,0.00,,,0.00,WUHU216DAVISVP2,2013-05-27 19:44:00,
2013-05-27 14:49:00,59.7,50.7,29.94,East,101,1.0,7.0,72,0.00,,,0.00,WUHU216DAVISVP2,2013-05-27 19:49:00,
2013-05-27 14:54:00,59.7,51.0,29.94,SE,126,1.0,7.0,73,0.00,,,0.00,WUHU216DAVISVP2,2013-05-27 19:54:00,
2013-05-27 14:59:00,59.6,50.9,29.94,WSW,258,3.0,6.0,73,0.00,,,0.00,WUHU216DAVISVP2,2013-05-27 19:59:00,
2013-05-27 15:04:00,59.5,51.0,29.94,ENE,70,0.0,7.0,73,0.00,,,0.00,WUHU216DAVISVP2,2013-05-27 20:04:00,
2013-05-27 15:09:00,59.4,50.9,29.94,SE,145,2.0,7.0,73,0.00,,,0.00,WUHU216DAVISVP2,2013-05-27 20:09:00,
2013-05-27 15:14:00,59.3,51.1,29.94,SSE,159,2.0,7.0,74,0.00,,,0.00,WUHU216DAVISVP2,2013-05-27 20:14:00,
2013-05-27 15:19:00,59.2,51.0,29.94,WSW,257,7.0,7.0,74,0.00,,,0.00,WUHU216DAVISVP2,2013-05-27 20:19:00,
2013-05-27 15:24:00,59.2,50.7,29.94,SSE,154,0.0,7.0,73,0.00,,,0.00,WUHU216DAVISVP2,2013-05-27 20:24:00,
2013-05-27 15:29:00,59.1,50.9,29.94,South,175,0.0,7.0,74,0.00,,,0.00,WUHU216DAVISVP2,2013-05-27 20:29:00,
2013-05-27 15:34:00,59.2,50.9,29.95,South,170,0.0,7.0,74,0.00,,,0.00,WUHU216DAVISVP2,2013-05-27 20:34:00,
2013-05-27 15:39:00,59.2,50.9,29.95,SSW,203,0.0,4.0,74,0.00,,,0.00,WUHU216DAVISVP2,2013-05-27 20:39:00,
2013-05-27 15:44:00,59.2,50.9,29.95,South,183,0.0,4.0,74,0.00,,,0.00,WUHU216DAVISVP2,2013-05-27 20:44:00,
2013-05-27 15:49:00,59.2,51.3,29.95,SSE,148,0.0,6.0,75,0.00,,,0.00,WUHU216DAVISVP2,2013-05-27 20:49:00,
2013-05-27 15:54:00,59.1,51.3,29.95,ESE,107,0.0,6.0,75,0.00,,,0.00,WUHU216DAVISVP2,2013-05-27 20:54:00,
2013-05-27 15:59:00,59.0,51.2,29.95,SSW,194,4.0,7.0,75,0.00,,,0.00,WUHU216DAVISVP2,2013-05-27 20:59:00,
2013-05-27 16:04:00,59.0,51.2,29.95,South,180,0.0,7.0,75,0.00,,,0.00,WUHU216DAVISVP2,2013-05-27 21:04:00,
2013-05-27 16:09:00,58.9,51.1,29.95,South,169,2.0,7.0,75,0.00,,,0.00,WUHU216DAVISVP2,2013-05-27 21:09:00,
2013-05-27 16:14:00,58.8,51.0,29.94,SSW,198,4.0,7.0,75,0.00,,,0.00,WUHU216DAVISVP2,2013-05-27 21:14:00,
2013-05-27 16:19:00,58.8,51.3,29.94,South,191,0.0,6.0,76,0.00,,,0.00,WUHU216DAVISVP2,2013-05-27 21:19:00,
2013-05-27 16:24:00,58.7,51.5,29.94,SSW,195,2.0,5.0,77,0.00,,,0.00,WUHU216DAVISVP2,2013-05-27 21:24:00,
2013-05-27 16:29:00,58.6,51.1,29.94,South,180,1.0,5.0,76,0.00,,,0.00,WUHU216DAVISVP2,2013-05-27 21:29:00,
2013-05-27 16:34:00,58.6,51.4,29.94,SSW,194,0.0,5.0,77,0.00,,,0.00,WUHU216DAVISVP2,2013-05-27 21:34:00,
2013-05-27 16:39:00,58.6,51.4,29.94,ESE,102,0.0,6.0,77,0.00,,,0.00,WUHU216DAVISVP2,2013-05-27 21:39:00,
2013-05-27 16:44:00,58.5,51.3,29.94,SE,140,0.0,6.0,77,0.00,,,0.00,WUHU216DAVISVP2,2013-05-27 21:44:00,
2013-05-27 16:49:00,58.5,51.4,29.94,SW,217,0.0,6.0,77,0.00,,,0.00,WUHU216DAVISVP2,2013-05-27 21:49:00,
2013-05-27 16:54:00,58.5,51.4,29.94,ESE,121,0.0,6.0,77,0.00,,,0.00,WUHU216DAVISVP2,2013-05-27 21:54:00,
2013-05-27 16:59:00,58.5,51.4,29.93,SE,145,1.0,5.0,77,0.00,,,0.00,WUHU216DAVISVP2,2013-05-27 21:59:00,
2013-05-27 17:04:00,58.5,51.4,29.93,SSE,150,0.0,6.0,77,0.00,,,0.00,WUHU216DAVISVP2,2013-05-27 22:04:00,
2013-05-27 17:09:00,58.5,51.4,29.93,ESE,111,1.0,6.0,77,0.00,,,0.00,WUHU216DAVISVP2,2013-05-27 22:09:00,
2013-05-27 17:14:00,58.6,51.8,29.93,SSW,200,0.0,6.0,78,0.00,,,0.00,WUHU216DAVISVP2,2013-05-27 22:14:00,
2013-05-27 17:19:00,58.6,51.4,29.93,SSE,154,0.0,6.0,77,0.00,,,0.00,WUHU216DAVISVP2,2013-05-27 22:19:00,
2013-05-27 17:24:00,58.6,51.4,29.93,SSW,212,0.0,5.0,77,0.00,,,0.00,WUHU216DAVISVP2,2013-05-27 22:24:00,
2013-05-27 17:29:00,58.6,51.8,29.93,ENE,75,0.0,8.0,78,0.00,,,0.00,WUHU216DAVISVP2,2013-05-27 22:29:00,
2013-05-27 17:34:00,58.6,52.2,29.93,ENE,71,4.0,8.0,79,0.00,,,0.00,WUHU216DAVISVP2,2013-05-27 22:34:00,
2013-05-27 17:39:00,58.6,52.2,29.93,SSW,213,4.0,8.0,79,0.00,,,0.00,WUHU216DAVISVP2,2013-05-27 22:39:00,
2013-05-27 17:44:00,58.5,53.1,29.93,SSW,199,9.0,14.0,82,0.00,,,0.00,WUHU216DAVISVP2,2013-05-27 22:44:00,
2013-05-27 17:49:00,58.2,53.1,29.93,ESE,112,4.0,14.0,83,0.00,,,0.00,WUHU216DAVISVP2,2013-05-27 22:49:00,
2013-05-27 17:54:00,57.8,53.3,29.93,South,191,0.0,14.0,85,0.00,,,0.00,WUHU216DAVISVP2,2013-05-27 22:54:00,
2013-05-27 17:59:00,57.5,53.3,29.92,WSW,250,0.0,14.0,86,0.00,,,0.00,WUHU216DAVISVP2,2013-05-27 22:59:00,
2013-05-27 18:04:00,57.2,53.0,29.92,NE,42,0.0,11.0,86,0.00,,,0.00,WUHU216DAVISVP2,2013-05-27 23:04:00,
2013-05-27 18:09:00,57.1,53.3,29.92,South,178,0.0,10.0,87,0.00,,,0.00,WUHU216DAVISVP2,2013-05-27 23:09:00,
2013-05-27 18:14:00,57.1,52.9,29.91,SSE,162,0.0,10.0,86,0.00,,,0.00,WUHU216DAVISVP2,2013-05-27 23:14:00,
2013-05-27 18:19:00,57.2,53.0,29.92,South,174,0.0,10.0,86,0.00,,,0.00,WUHU216DAVISVP2,2013-05-27 23:19:00,
2013-05-27 18:24:00,57.3,53.1,29.92,ESE,113,1.0,10.0,86,0.00,,,0.00,WUHU216DAVISVP2,2013-05-27 23:24:00,
2013-05-27 18:29:00,57.3,53.1,29.91,WSW,248,1.0,10.0,86,0.00,,,0.00,WUHU216DAVISVP2,2013-05-27 23:29:00,
2013-05-27 18:34:00,57.3,52.8,29.91,ESE,107,1.0,10.0,85,0.00,,,0.00,WUHU216DAVISVP2,2013-05-27 23:34:00,
2013-05-27 18:39:00,57.3,53.1,29.91,SSE,153,0.0,7.0,86,0.00,,,0.00,WUHU216DAVISVP2,2013-05-27 23:39:00,
2013-05-27 18:44:00,57.4,53.2,29.91,SSE,153,0.0,3.0,86,0.00,,,0.00,WUHU216DAVISVP2,2013-05-27 23:44:00,
2013-05-27 18:49:00,57.4,52.9,29.91,SE,140,0.0,3.0,85,0.00,,,0.00,WUHU216DAVISVP2,2013-05-27 23:49:00,
2013-05-27 18:54:00,57.5,53.0,29.91,SSW,200,0.0,3.0,85,0.00,,,0.00,WUHU216DAVISVP2,2013-05-27 23:54:00,
2013-05-27 18:59:00,57.5,53.0,29.91,SSW,205,0.0,3.0,85,0.00,,,0.00,WUHU216DAVISVP2,2013-05-27 23:59:00,
2013-05-27 19:04:00,57.6,52.8,29.90,SSW,200,0.0,4.0,84,0.00,,,0.00,WUHU216DAVISVP2,2013-05-28 00:04:00,
2013-05-27 19:09:00,57.6,52.8,29.90,South,180,1.0,4.0,84,0.00,,,0.00,WUHU216DAVISVP2,2013-05-28 00:09:00,
2013-05-27 19:14:00,57.7,52.9,29.91,WSW,242,0.0,4.0,84,0.00,,,0.00,WUHU216DAVISVP2,2013-05-28 00:14:00,
2013-05-27 19:19:00,57.7,52.9,29.90,SSE,165,0.0,4.0,84,0.00,,,0.00,WUHU216DAVISVP2,2013-05-28 00:19:00,
2013-05-27 19:24:00,57.8,52.7,29.91,South,169,0.0,4.0,83,0.00,,,0.00,WUHU216DAVISVP2,2013-05-28 00:24:00,
2013-05-27 19:29:00,57.9,52.8,29.91,ESE,120,0.0,4.0,83,0.00,,,0.00,WUHU216DAVISVP2,2013-05-28 00:29:00,
2013-05-27 19:34:00,57.9,52.8,29.91,SSW,192,0.0,4.0,83,0.00,,,0.00,WUHU216DAVISVP2,2013-05-28 00:34:00,
2013-05-27 19:39:00,57.9,52.8,29.91,ESE,110,0.0,4.0,83,0.00,,,0.00,WUHU216DAVISVP2,2013-05-28 00:39:00,
2013-05-27 19:44:00,58.0,52.9,29.91,ESE,111,0.0,4.0,83,0.00,,,0.00,WUHU216DAVISVP2,2013-05-28 00:44:00,
2013-05-27 19:49:00,58.0,52.9,29.91,SW,217,0.0,3.0,83,0.00,,,0.00,WUHU216DAVISVP2,2013-05-28 00:49:00,
2013-05-27 19:54:00,58.0,52.9,29.91,South,183,0.0,5.0,83,0.00,,,0.00,WUHU216DAVISVP2,2013-05-28 00:54:00,
2013-05-27 19:59:00,58.0,52.9,29.91,NE,49,0.0,5.0,83,0.00,,,0.00,WUHU216DAVISVP2,2013-05-28 00:59:00,
2013-05-27 20:03:00,58.0,52.9,29.91,SE,138,0.0,5.0,83,0.00,,,0.00,WUHU216DAVISVP2,2013-05-28 01:03:00,
2013-05-27 20:08:00,58.0,52.6,29.91,SSE,165,4.0,5.0,82,0.00,,,0.00,WUHU216DAVISVP2,2013-05-28 01:08:00,
2013-05-27 20:13:00,58.1,52.7,29.91,South,180,1.0,5.0,82,0.00,,,0.00,WUHU216DAVISVP2,2013-05-28 01:13:00,
2013-05-27 20:18:00,58.1,52.3,29.91,SSW,208,3.0,10.0,81,0.00,,,0.00,WUHU216DAVISVP2,2013-05-28 01:18:00,
2013-05-27 20:23:00,58.2,52.4,29.91,SSE,161,0.0,10.0,81,0.00,,,0.00,WUHU216DAVISVP2,2013-05-28 01:23:00,
2013-05-27 20:28:00,58.3,52.5,29.91,ESE,114,2.0,10.0,81,0.00,,,0.00,WUHU216DAVISVP2,2013-05-28 01:28:00,
2013-05-27 20:33:00,58.3,52.5,29.91,SSE,148,2.0,10.0,81,0.00,,,0.00,WUHU216DAVISVP2,2013-05-28 01:33:00,
2013-05-27 20:38:00,58.3,52.5,29.91,SSW,199,0.0,9.0,81,0.00,,,0.00,WUHU216DAVISVP2,2013-05-28 01:38:00,
2013-05-27 20:43:00,58.3,52.5,29.90,SSW,200,3.0,9.0,81,0.00,,,0.00,WUHU216DAVISVP2,2013-05-28 01:43:00,
2013-05-27 20:48:00,58.4,52.6,29.90,SSW,193,4.0,9.0,81,0.00,,,0.00,WUHU216DAVISVP2,2013-05-28 01:48:00,
2013-05-27 20:53:00,58.3,52.5,29.90,South,172,0.0,9.0,81,0.00,,,0.00,WUHU216DAVISVP2,2013-05-28 01:53:00,
2013-05-27 20:58:00,58.3,52.5,29.90,South,174,0.0,10.0,81,0.00,,,0.00,WUHU216DAVISVP2,2013-05-28 01:58:00,
2013-05-27 21:03:00,58.2,52.1,29.90,SSW,212,4.0,10.0,80,0.00,,,0.00,WUHU216DAVISVP2,2013-05-28 02:03:00,
2013-05-27 21:08:00,58.2,52.1,29.90,East,94,2.0,11.0,80,0.00,,,0.00,WUHU216DAVISVP2,2013-05-28 02:08:00,
2013-05-27 21:13:00,58.2,52.1,29.90,SSW,213,3.0,11.0,80,0.00,,,0.00,WUHU216DAVISVP2,2013-05-28 02:13:00,
2013-05-27 21:18:00,58.2,52.1,29.90,SSE,168,0.0,11.0,80,0.00,,,0.00,WUHU216DAVISVP2,2013-05-28 02:18:00,
2013-05-27 21:23:00,58.2,52.1,29.90,SSE,165,0.0,11.0,80,0.00,,,0.00,WUHU216DAVISVP2,2013-05-28 02:23:00,
2013-05-27 21:28:00,58.2,52.1,29.90,SSW,194,3.0,7.0,80,0.00,,,0.00,WUHU216DAVISVP2,2013-05-28 02:28:00,
2013-05-27 21:33:00,58.2,52.1,29.91,SSW,192,4.0,7.0,80,0.00,,,0.00,WUHU216DAVISVP2,2013-05-28 02:33:00,
2013-05-27 21:38:00,58.1,52.0,29.90,SSW,208,0.0,9.0,80,0.00,,,0.00,WUHU216DAVISVP2,2013-05-28 02:38:00,
2013-05-27 21:43:00,58.1,52.0,29.91,SSW,201,4.0,9.0,80,0.00,,,0.00,WUHU216DAVISVP2,2013-05-28 02:43:00,
2013-05-27 21:48:00,58.1,52.0,29.90,SSW,196,2.0,9.0,80,0.00,,,0.00,WUHU216DAVISVP2,2013-05-28 02:48:00,
2013-05-27 21:53:00,58.0,51.9,29.90,SSW,205,0.0,9.0,80,0.00,,,0.00,WUHU216DAVISVP2,2013-05-28 02:53:00,
2013-05-27 21:58:00,58.0,51.9,29.90,SW,225,0.0,7.0,80,0.00,,,0.00,WUHU216DAVISVP2,2013-05-28 02:58:00,
2013-05-27 22:03:00,58.0,51.9,29.89,SSW,193,3.0,6.0,80,0.00,,,0.00,WUHU216DAVISVP2,2013-05-28 03:03:00,
2013-05-27 22:08:00,57.9,52.1,29.89,SSW,209,4.0,10.0,81,0.00,,,0.00,WUHU216DAVISVP2,2013-05-28 03:08:00,
2013-05-27 22:13:00,57.9,52.1,29.89,SSW,197,0.0,14.0,81,0.00,,,0.00,WUHU216DAVISVP2,2013-05-28 03:13:00,
2013-05-27 22:18:00,57.8,52.0,29.89,South,188,4.0,14.0,81,0.00,,,0.00,WUHU216DAVISVP2,2013-05-28 03:18:00,
2013-05-27 22:23:00,57.8,52.0,29.90,SW,214,0.0,13.0,81,0.00,,,0.00,WUHU216DAVISVP2,2013-05-28 03:23:00,
2013-05-27 22:28:00,57.7,52.0,29.90,SSW,200,0.0,13.0,81,0.00,,,0.00,WUHU216DAVISVP2,2013-05-28 03:28:00,
2013-05-27 22:33:00,57.7,52.0,29.90,SSE,160,2.0,7.0,81,0.00,,,0.00,WUHU216DAVISVP2,2013-05-28 03:33:00,
2013-05-27 22:38:00,57.7,52.0,29.90,SSE,148,0.0,12.0,81,0.00,,,0.00,WUHU216DAVISVP2,2013-05-28 03:38:00,
2013-05-27 22:43:00,57.8,51.7,29.90,South,188,0.0,12.0,80,0.00,,,0.00,WUHU216DAVISVP2,2013-05-28 03:43:00,
2013-05-27 22:48:00,57.8,51.7,29.90,SSW,200,3.0,12.0,80,0.00,,,0.00,WUHU216DAVISVP2,2013-05-28 03:48:00,
2013-05-27 22:53:00,57.7,51.9,29.89,East,81,0.0,12.0,81,0.00,,,0.00,WUHU216DAVISVP2,2013-05-28 03:53:00,
2013-05-27 22:58:00,57.8,51.7,29.89,South,176,2.0,7.0,80,0.00,,,0.00,WUHU216DAVISVP2,2013-05-28 03:58:00,
2013-05-27 23:01:00,57.7,52.0,29.89,SSW,195,0.0,7.0,81,0.00,,,0.00,WUHU216DAVISVP2,2013-05-28 04:01:00,
2013-05-27 23:06:00,57.7,52.0,29.89,South,186,0.0,7.0,81,0.00,,,0.00,WUHU216DAVISVP2,2013-05-28 04:06:00,
2013-05-27 23:11:00,57.7,52.0,29.90,South,189,0.0,7.0,81,0.00,,,0.00,WUHU216DAVISVP2,2013-05-28 04:11:00,
2013-05-27 23:16:00,57.7,51.6,29.90,SSW,202,0.0,7.0,80,0.00,,,0.00,WUHU216DAVISVP2,2013-05-28 04:16:00,
2013-05-27 23:21:00,57.6,51.9,29.89,SSW,196,0.0,7.0,81,0.00,,,0.00,WUHU216DAVISVP2,2013-05-28 04:21:00,
2013-05-27 23:26:00,57.6,51.9,29.89,South,190,4.0,7.0,81,0.00,,,0.00,WUHU216DAVISVP2,2013-05-28 04:26:00,
2013-05-27 23:31:00,57.6,51.8,29.90,ESE,109,0.0,8.0,81,0.00,,,0.00,WUHU216DAVISVP2,2013-05-28 04:31:00,
2013-05-27 23:36:00,57.6,51.8,29.89,South,179,6.0,8.0,81,0.00,,,0.00,WUHU216DAVISVP2,2013-05-28 04:36:00,
2013-05-27 23:41:00,57.6,52.2,29.89,SSW,198,1.0,8.0,82,0.00,,,0.00,WUHU216DAVISVP2,2013-05-28 04:41:00,
2013-05-27 23:46:00,57.5,52.1,29.89,South,180,4.0,9.0,82,0.00,,,0.00,WUHU216DAVISVP2,2013-05-28 04:46:00,
2013-05-27 23:51:00,57.4,52.3,29.89,SE,146,0.0,11.0,83,0.00,,,0.00,WUHU216DAVISVP2,2013-05-28 04:51:00,
2013-05-27 23:56:00,57.3,52.2,29.89,SSE,160,0.0,11.0,83,0.00,,,0.00,WUHU216DAVISVP2,2013-05-28 04:56:00,